GW2569 Weather Reports


Display with metric or nautical units.
time (UTC)temp
F
wind
direction
speed
MPH
gust
MPH
rain 1hr
in
rain 24hr
in
rain mn
in
humidity
%
barometer
mb
20260508111037 82 0 1.0 4.0 0.00 0.00 0.00 92 1009.4
20260508110539 82 42 1.0 4.0 0.00 0.00 0.00 92 1009.3
20260508110058 82 0 0.0 0.0 0.00 0.00 0.00 92 1009.4
20260508105539 82 0 0.0 0.0 0.00 0.00 0.00 92 1009.3
20260508105040 82 0 0.0 0.0 0.00 0.00 0.00 92 1009.3
20260508104550 82 0 0.0 2.0 0.00 0.00 0.00 92 1009.3
20260508104039 82 0 0.0 2.0 0.00 0.00 0.00 92 1009.4
20260508103540 82 0 0.0 3.0 0.00 0.00 0.00 93 1009.2
20260508103057 82 0 0.0 3.0 0.00 0.00 0.00 93 1009.1
20260508102539 82 0 0.0 1.0 0.00 0.00 0.00 93 1009.2
20260508102040 82 0 0.0 3.0 0.00 0.00 0.00 93 1009.2
20260508101551 82 0 0.0 4.0 0.00 0.00 0.00 93 1009.2
20260508101040 82 190 0.0 4.0 0.00 0.00 0.00 93 1009.2
20260508100540 82 187 1.0 4.0 0.00 0.00 0.00 93 1009.1
20260508100049 82 178 0.0 5.0 0.00 0.00 0.00 93 1009.1
20260508095539 82 0 1.0 5.0 0.00 0.00 0.00 93 1009.1
20260508095043 82 0 1.0 4.0 0.00 0.00 0.00 93 1009.0
20260508094546 82 0 1.0 4.0 0.00 0.00 0.00 93 1009.0
20260508094039 82 0 0.0 3.0 0.00 0.00 0.00 93 1008.9
20260508093541 82 143 0.0 3.0 0.00 0.00 0.00 93 1008.7
20260508093049 82 190 0.0 2.0 0.00 0.00 0.00 94 1008.8
20260508092539 82 0 0.0 4.0 0.00 0.00 0.00 94 1008.7
20260508092039 82 0 0.0 4.0 0.00 0.00 0.00 94 1008.6
20260508091553 82 171 0.0 3.0 0.00 0.00 0.00 94 1008.7
20260508091039 82 103 0.0 4.0 0.00 0.00 0.00 94 1008.7
20260508090540 82 0 1.0 5.0 0.00 0.00 0.00 94 1008.6
20260508090100 82 109 2.0 8.0 0.00 0.00 0.00 94 1008.4
20260508085540 82 5 2.0 8.0 0.00 0.00 0.00 94 1008.3
20260508085038 82 111 2.0 7.0 0.00 0.00 0.00 94 1008.4
20260508084547 82 76 2.0 8.0 0.00 0.00 0.00 94 1008.5
20260508084040 83 58 2.0 9.0 0.00 0.00 0.00 94 1008.5
20260508083540 83 88 2.0 9.0 0.00 0.00 0.00 94 1008.5
20260508083054 83 76 3.0 9.0 0.00 0.00 0.00 94 1008.5
20260508082539 83 14 3.0 9.0 0.00 0.00 0.00 94 1008.6
20260508082039 83 25 2.0 9.0 0.00 0.00 0.00 94 1008.5
20260508081558 83 63 4.0 9.0 0.00 0.00 0.00 94 1008.6
20260508081040 83 48 1.0 8.0 0.00 0.00 0.00 94 1008.7
20260508080539 83 79 2.0 8.0 0.00 0.00 0.00 94 1008.8
20260508080052 83 41 1.0 4.0 0.00 0.00 0.00 94 1008.9
20260508075539 83 84 1.0 5.0 0.00 0.00 0.00 94 1009.1
20260508075039 83 60 1.0 5.0 0.00 0.00 0.00 94 1009.0
20260508074546 83 38 1.0 6.0 0.00 0.00 0.00 94 1009.0
20260508074039 83 56 1.0 6.0 0.00 0.00 0.00 94 1009.1
20260508073542 83 38 3.0 6.0 0.00 0.00 0.00 94 1009.2
20260508073052 83 35 1.0 7.0 0.00 0.00 0.00 94 1009.3
20260508072539 83 59 2.0 7.0 0.00 0.00 0.00 94 1009.4
20260508072040 83 329 2.0 8.0 0.00 0.00 0.00 94 1009.4
20260508071554 83 48 2.0 9.0 0.00 0.00 0.00 94 1009.6
20260508071038 83 61 3.0 9.0 0.00 0.00 0.00 94 1009.7
20260508070536 83 49 3.0 8.0 0.00 0.00 0.00 94 1009.8
20260508070053 83 92 2.0 6.0 0.00 0.00 0.00 94 1009.9
20260508065542 83 53 1.0 7.0 0.00 0.00 0.00 94 1010.2
20260508065039 83 0 0.0 8.0 0.00 0.00 0.00 94 1010.3
20260508064555 83 44 3.0 8.0 0.00 0.00 0.00 94 1010.4
20260508064044 83 22 3.0 8.0 0.00 0.00 0.00 93 1010.6
20260508063540 83 53 2.0 6.0 0.00 0.00 0.00 93 1010.7
20260508063049 83 59 2.0 7.0 0.00 0.00 0.00 93 1010.7
20260508062539 83 5 2.0 7.0 0.00 0.00 0.00 93 1010.8
20260508062040 83 59 2.0 6.0 0.00 0.00 0.00 93 1010.7
20260508061551 83 74 2.0 7.0 0.00 0.00 0.00 92 1010.8
20260508061039 83 91 3.0 7.0 0.00 0.00 0.00 92 1010.8
20260508060536 83 67 3.0 7.0 0.00 0.00 0.00 92 1011.0
20260508060050 84 86 3.0 7.0 0.00 0.00 0.00 92 1011.1
20260508055539 84 50 3.0 7.0 0.00 0.00 0.00 91 1011.0
20260508055039 84 76 3.0 10.0 0.00 0.00 0.00 91 1011.1
20260508054548 84 66 4.0 10.0 0.00 0.00 0.00 91 1011.1
20260508054039 84 86 5.0 10.0 0.00 0.00 0.00 90 1011.1
20260508053541 84 45 3.0 10.0 0.00 0.00 0.00 90 1011.0
20260508053113 84 346 4.0 11.0 0.00 0.00 0.00 90 1011.1
20260508052537 84 74 6.0 11.0 0.00 0.00 0.00 89 1011.0
20260508052040 85 84 3.0 10.0 0.00 0.00 0.00 87 1010.9
20260508051554 85 71 3.0 9.0 0.00 0.00 0.00 87 1010.9
20260508051039 86 56 2.0 12.0 0.00 0.00 0.00 86 1010.9
20260508050539 86 5 3.0 12.0 0.00 0.00 0.00 86 1010.9
20260508050054 86 40 4.0 12.0 0.00 0.00 0.00 85 1010.8
20260508045538 86 23 4.0 11.0 0.00 0.00 0.00 84 1010.8
20260508045039 87 74 3.0 11.0 0.00 0.00 0.00 83 1010.6
20260508044543 87 38 4.0 11.0 0.00 0.00 0.00 82 1010.6
20260508044040 87 51 4.0 10.0 0.00 0.00 0.00 82 1010.5
20260508043542 88 47 4.0 10.0 0.00 0.00 0.00 81 1010.6
20260508043054 88 59 5.0 10.0 0.00 0.00 0.00 80 1010.5
20260508042540 88 111 3.0 7.0 0.00 0.00 0.00 79 1010.6
20260508042037 88 73 2.0 9.0 0.00 0.00 0.00 78 1010.5
20260508041611 88 76 3.0 9.0 0.00 0.00 0.00 78 1010.4
20260508041039 89 93 3.0 10.0 0.00 0.00 0.00 77 1010.3
20260508040537 89 41 4.0 10.0 0.00 0.00 0.00 77 1010.4
20260508040105 89 46 3.0 8.0 0.00 0.00 0.00 77 1010.4
20260508035539 89 19 2.0 8.0 0.00 0.00 0.00 76 1010.3
20260508035038 89 85 3.0 7.0 0.00 0.00 0.00 76 1010.2
20260508034549 88 46 3.0 7.0 0.00 0.00 0.00 78 1010.1
20260508034042 89 73 1.0 5.0 0.00 0.00 0.00 79 1010.0
20260508033538 89 44 1.0 5.0 0.00 0.00 0.00 79 1010.0
20260508033047 89 0 0.0 4.0 0.00 0.00 0.00 79 1010.0
20260508032539 89 0 1.0 4.0 0.00 0.00 0.00 79 1009.9
20260508032037 89 315 2.0 4.0 0.00 0.00 0.00 79 1010.0
20260508031549 89 81 1.0 4.0 0.00 0.00 0.00 79 1010.0
20260508031039 89 0 0.0 4.0 0.00 0.00 0.00 79 1010.0
20260508030539 89 80 0.0 4.0 0.00 0.00 0.00 79 1010.0
20260508030047 89 0 0.0 2.0 0.00 0.00 0.00 79 1009.9
20260508025540 89 0 0.0 2.0 0.00 0.00 0.00 79 1009.8
20260508025039 89 0 0.0 3.0 0.00 0.00 0.00 79 1009.9
20260508024553 89 0 0.0 3.0 0.00 0.00 0.00 79 1009.8
20260508024041 89 0 0.0 3.0 0.00 0.00 0.00 79 1009.8
20260508023539 89 57 0.0 4.0 0.00 0.00 0.00 79 1009.8
20260508023051 89 0 0.0 4.0 0.00 0.00 0.00 79 1009.8
20260508022543 89 331 0.0 4.0 0.00 0.00 0.00 79 1009.8
20260508022042 89 355 1.0 5.0 0.00 0.00 0.00 79 1009.8
20260508021550 89 104 2.0 6.0 0.00 0.00 0.00 79 1009.7
20260508021042 90 17 1.0 6.0 0.00 0.00 0.00 79 1009.6
20260508020545 90 55 1.0 5.0 0.00 0.00 0.00 80 1009.5
20260508020049 90 0 1.0 5.0 0.00 0.00 0.00 79 1009.5
20260508015540 90 31 0.0 4.0 0.00 0.00 0.00 80 1009.3
20260508015041 91 313 1.0 8.0 0.00 0.00 0.00 80 1009.4
20260508014550 91 0 0.0 8.0 0.00 0.00 0.00 80 1009.2
20260508014042 91 0 2.0 8.0 0.00 0.00 0.00 80 1009.1
20260508013541 91 24 0.0 9.0 0.00 0.00 0.00 80 1009.1
20260508013051 91 0 2.0 9.0 0.00 0.00 0.00 79 1009.0
20260508012542 91 360 2.0 6.0 0.00 0.00 0.00 79 1009.0
20260508012045 92 351 1.0 6.0 0.00 0.00 0.00 79 1008.9
20260508011555 92 47 2.0 6.0 0.00 0.00 0.00 79 1008.6
20260508011039 93 46 2.0 6.0 0.00 0.00 0.00 79 1008.6
20260508010539 94 89 1.0 6.0 0.00 0.00 0.00 79 1008.5
20260508010047 94 360 0.0 6.0 0.00 0.00 0.00 76 1008.3
20260508005542 94 0 0.0 5.0 0.00 0.00 0.00 76 1008.2
20260508005042 94 5 1.0 5.0 0.00 0.00 0.00 76 1008.2
20260508004555 94 49 2.0 5.0 0.00 0.00 0.00 76 1008.1
20260508004042 95 52 0.0 3.0 0.00 0.00 0.00 76 1008.1
20260508003541 95 0 0.0 3.0 0.00 0.00 0.00 76 1008.0
20260508003053 95 0 0.0 4.0 0.00 0.00 0.00 76 1008.0
20260508002545 95 69 1.0 6.0 0.00 0.00 0.00 76 1008.0
20260508002041 95 106 1.0 7.0 0.00 0.00 0.00 76 1008.1
20260508001549 95 49 3.0 7.0 0.00 0.00 0.00 76 1008.0
20260508001041 95 110 3.0 7.0 0.00 0.00 0.00 76 1008.0
20260508000541 95 80 4.0 7.0 0.00 0.00 0.00 75 1008.1
20260508000048 95 26 2.0 7.0 0.00 0.00 0.00 75 1008.1
20260507235540 95 101 3.0 7.0 0.00 0.00 0.00 75 1008.1
20260507235040 95 99 3.0 8.0 0.00 0.00 0.00 75 1008.0
20260507234550 95 74 4.0 8.0 0.00 0.00 0.00 74 1007.9
20260507234040 96 93 4.0 10.0 0.00 0.00 0.00 74 1007.9
20260507233541 96 98 5.0 10.0 0.00 0.00 0.00 74 1007.9
20260507233101 96 119 3.0 8.0 0.00 0.00 0.00 74 1007.9
20260507232542 96 115 3.0 8.0 0.00 0.00 0.00 74 1007.9
20260507232039 96 106 4.0 9.0 0.00 0.00 0.00 74 1007.9
20260507231551 96 80 3.0 9.0 0.00 0.00 0.00 73 1007.9
20260507231041 96 68 3.0 9.0 0.00 0.00 0.00 73 1007.8
20260507230544 96 111 2.0 8.0 0.00 0.00 0.00 73 1007.8
20260507230050 96 93 4.0 11.0 0.00 0.00 0.00 73 1007.7
20260507225542 96 60 6.0 11.0 0.00 0.00 0.00 73 1007.8
20260507225042 96 103 4.0 9.0 0.00 0.00 0.00 72 1007.8
20260507224557 96 84 3.0 9.0 0.00 0.00 0.00 72 1007.8
20260507224043 97 92 5.0 9.0 0.00 0.00 0.00 72 1007.9
20260507223543 97 155 4.0 10.0 0.00 0.00 0.00 72 1007.9
20260507223052 97 100 4.0 10.0 0.00 0.00 0.00 72 1007.8
20260507222542 97 97 6.0 10.0 0.00 0.00 0.00 71 1007.8
20260507222041 97 74 5.0 8.0 0.00 0.00 0.00 72 1007.8
20260507221552 97 115 4.0 8.0 0.00 0.00 0.00 71 1007.8
20260507221045 97 110 2.0 8.0 0.00 0.00 0.00 72 1007.9
20260507220539 97 76 4.0 8.0 0.00 0.00 0.00 72 1007.9
20260507220051 97 94 3.0 8.0 0.00 0.00 0.00 72 1007.9
20260507215543 97 84 3.0 9.0 0.00 0.00 0.00 72 1007.9
20260507215040 97 94 3.0 9.0 0.00 0.00 0.00 72 1007.9
20260507214601 97 101 4.0 10.0 0.00 0.00 0.00 72 1007.9
20260507214041 97 37 4.0 10.0 0.00 0.00 0.00 72 1007.9
20260507213540 97 74 5.0 10.0 0.00 0.00 0.00 72 1007.9
20260507213100 97 140 2.0 11.0 0.00 0.00 0.00 71 1007.8
20260507212544 97 80 5.0 11.0 0.00 0.00 0.00 71 1007.9
20260507212040 97 113 4.0 11.0 0.00 0.00 0.00 71 1007.9
20260507211549 97 119 5.0 10.0 0.00 0.00 0.00 71 1007.9
20260507211039 98 51 4.0 10.0 0.00 0.00 0.00 71 1008.0
20260507210539 97 78 3.0 10.0 0.00 0.00 0.00 72 1008.0
20260507210050 98 109 5.0 10.0 0.00 0.00 0.00 71 1008.0
20260507205537 98 72 2.0 11.0 0.00 0.00 0.00 71 1008.0
20260507205038 97 11 5.0 11.0 0.00 0.00 0.00 71 1008.1
20260507204551 97 78 6.0 10.0 0.00 0.00 0.00 71 1008.2
20260507204044 97 111 5.0 10.0 0.00 0.00 0.00 71 1008.2
20260507203537 97 18 4.0 10.0 0.00 0.00 0.00 71 1008.2
20260507203049 97 40 3.0 11.0 0.00 0.00 0.00 71 1008.2
20260507202541 97 22 4.0 11.0 0.00 0.00 0.00 72 1008.2
20260507202039 97 0 5.0 10.0 0.00 0.00 0.00 72 1008.3
20260507201546 97 84 5.0 10.0 0.00 0.00 0.00 72 1008.3
20260507201041 97 82 4.0 10.0 0.00 0.00 0.00 72 1008.4
20260507200540 97 53 3.0 10.0 0.00 0.00 0.00 72 1008.5
20260507200051 97 93 2.0 9.0 0.00 0.00 0.00 72 1008.5
20260507195546 97 94 4.0 10.0 0.00 0.00 0.00 73 1008.5
20260507195041 97 50 5.0 10.0 0.00 0.00 0.00 73 1008.6
20260507194615 96 101 3.0 10.0 0.00 0.00 0.00 74 1008.7
20260507194044 96 129 3.0 11.0 0.00 0.00 0.00 73 1008.8
20260507193541 96 84 2.0 11.0 0.00 0.00 0.00 74 1008.9
20260507193049 96 59 5.0 11.0 0.00 0.00 0.00 73 1009.0
20260507192542 96 98 4.0 10.0 0.00 0.00 0.00 73 1009.2
20260507192041 96 119 4.0 11.0 0.00 0.00 0.00 73 1009.3
20260507191551 96 91 5.0 11.0 0.00 0.00 0.00 73 1009.4
20260507191039 96 53 3.0 12.0 0.00 0.00 0.00 74 1009.4
20260507190540 96 12 5.0 12.0 0.00 0.00 0.00 73 1009.5
20260507190054 95 125 4.0 12.0 0.00 0.00 0.00 74 1009.5
20260507185540 96 93 4.0 9.0 0.00 0.00 0.00 74 1009.7
20260507185044 95 102 4.0 9.0 0.00 0.00 0.00 74 1009.7
20260507184551 95 112 4.0 9.0 0.00 0.00 0.00 74 1009.8
20260507184042 95 116 4.0 10.0 0.00 0.00 0.00 74 1009.8
20260507183541 95 104 6.0 10.0 0.00 0.00 0.00 74 1010.0
20260507183054 94 113 2.0 10.0 0.00 0.00 0.00 75 1009.9
20260507182537 95 65 3.0 10.0 0.00 0.00 0.00 74 1010.0
20260507182042 95 87 2.0 8.0 0.00 0.00 0.00 75 1010.0
20260507181555 94 159 3.0 8.0 0.00 0.00 0.00 75 1010.1
20260507181040 94 193 3.0 8.0 0.00 0.00 0.00 75 1010.2
20260507180540 94 132 5.0 8.0 0.00 0.00 0.00 75 1010.2
20260507180052 94 103 4.0 8.0 0.00 0.00 0.00 75 1010.2
20260507175541 94 0 2.0 9.0 0.00 0.00 0.00 75 1010.4
20260507175040 94 0 4.0 9.0 0.00 0.00 0.00 75 1010.3
20260507174559 94 77 4.0 9.0 0.00 0.00 0.00 75 1010.4
20260507174040 94 109 2.0 6.0 0.00 0.00 0.00 75 1010.6
20260507173540 94 29 3.0 6.0 0.00 0.00 0.00 75 1010.6
20260507173129 94 57 2.0 8.0 0.00 0.00 0.00 76 1010.7
20260507172542 93 157 3.0 10.0 0.00 0.00 0.00 76 1010.7
20260507172041 93 136 4.0 10.0 0.00 0.00 0.00 77 1010.7
20260507171607 92 120 2.0 8.0 0.00 0.00 0.00 78 1010.7
20260507171040 92 121 3.0 8.0 0.00 0.00 0.00 77 1010.8
20260507170539 91 100 4.0 8.0 0.00 0.00 0.00 78 1011.0
20260507170110 92 130 4.0 10.0 0.00 0.00 0.00 77 1011.1
20260507165541 92 122 7.0 10.0 0.00 0.00 0.00 78 1011.1
20260507165039 91 84 3.0 10.0 0.00 0.00 0.00 78 1011.2
20260507164555 91 97 4.0 10.0 0.00 0.00 0.00 79 1011.2
20260507164037 90 113 3.0 10.0 0.00 0.00 0.00 79 1011.2
20260507163537 91 153 3.0 10.0 0.00 0.00 0.00 78 1011.1
20260507163051 91 108 3.0 10.0 0.00 0.00 0.00 79 1011.2
20260507162538 91 120 4.0 10.0 0.00 0.00 0.00 78 1011.2
20260507162043 90 98 5.0 10.0 0.00 0.00 0.00 80 1011.2
20260507161603 90 109 3.0 10.0 0.00 0.00 0.00 80 1011.2
20260507161040 90 36 2.0 7.0 0.00 0.00 0.00 81 1011.2
20260507160540 90 89 3.0 10.0 0.00 0.00 0.00 81 1011.3
20260507160050 89 190 3.0 10.0 0.00 0.00 0.00 81 1011.4
20260507155540 89 122 3.0 10.0 0.00 0.00 0.00 81 1011.3
20260507155040 89 98 3.0 9.0 0.00 0.00 0.00 82 1011.3
20260507154549 88 96 4.0 9.0 0.00 0.00 0.00 82 1011.3
20260507154037 88 120 3.0 9.0 0.00 0.00 0.00 82 1011.3
20260507153540 88 76 4.0 9.0 0.00 0.00 0.00 82 1011.4
20260507153059 88 193 3.0 10.0 0.00 0.00 0.00 82 1011.4
20260507152542 87 125 4.0 10.0 0.00 0.00 0.00 83 1011.5
20260507152040 87 98 4.0 10.0 0.00 0.00 0.00 83 1011.5
20260507151551 87 67 4.0 10.0 0.00 0.00 0.00 83 1011.6
20260507151040 87 88 4.0 9.0 0.00 0.00 0.00 83 1011.5
20260507150541 86 111 2.0 11.0 0.00 0.00 0.00 84 1011.6
20260507150055 85 144 4.0 11.0 0.00 0.00 0.00 84 1011.5
20260507145540 85 101 6.0 11.0 0.00 0.00 0.00 84 1011.5
20260507145043 85 109 5.0 9.0 0.00 0.00 0.00 85 1011.6
20260507144551 85 130 3.0 10.0 0.00 0.00 0.00 85 1011.5
20260507144043 85 96 5.0 10.0 0.00 0.00 0.00 85 1011.6
20260507143540 84 87 5.0 10.0 0.00 0.00 0.00 85 1011.6
20260507143049 84 98 6.0 10.0 0.00 0.00 0.00 85 1011.5
20260507142540 84 121 5.0 9.0 0.00 0.00 0.00 85 1011.4
20260507142040 84 98 4.0 11.0 0.00 0.00 0.00 85 1011.4
20260507141612 83 115 4.0 11.0 0.00 0.00 0.00 86 1011.4
20260507141042 83 105 4.0 11.0 0.00 0.00 0.00 87 1011.4
20260507140540 82 98 6.0 11.0 0.00 0.00 0.00 87 1011.4
20260507140056 82 156 5.0 9.0 0.00 0.00 0.00 87 1011.4
20260507135539 82 108 4.0 9.0 0.00 0.00 0.00 87 1011.3
20260507135039 82 71 5.0 9.0 0.00 0.00 0.00 87 1011.3
20260507134559 82 129 5.0 9.0 0.00 0.00 0.00 87 1011.4
20260507134040 82 112 5.0 9.0 0.00 0.00 0.00 87 1011.4
20260507133540 81 106 5.0 10.0 0.00 0.00 0.00 87 1011.3
20260507133101 81 100 6.0 10.0 0.00 0.00 0.00 88 1011.2
20260507132541 81 74 5.0 10.0 0.00 0.00 0.00 88 1011.1
20260507132040 81 103 5.0 10.0 0.00 0.00 0.00 88 1011.2
20260507131550 81 96 3.0 10.0 0.00 0.00 0.00 88 1011.1
20260507131043 80 119 5.0 10.0 0.00 0.00 0.00 88 1011.1
20260507130540 80 74 5.0 11.0 0.00 0.00 0.00 88 1011.1
20260507130052 80 41 4.0 11.0 0.00 0.00 0.00 88 1011.1
20260507125540 80 68 4.0 9.0 0.00 0.00 0.00 89 1011.1
20260507125040 80 101 5.0 10.0 0.00 0.00 0.00 89 1010.9
20260507124553 80 65 5.0 10.0 0.00 0.00 0.00 89 1010.8
20260507124042 80 94 4.0 9.0 0.00 0.00 0.00 88 1010.8
20260507123540 80 97 4.0 9.0 0.00 0.00 0.00 88 1010.7
20260507123054 80 82 5.0 9.0 0.00 0.00 0.00 88 1010.6
20260507122539 80 83 3.0 9.0 0.00 0.00 0.00 88 1010.6
20260507122041 80 101 3.0 10.0 0.00 0.00 0.00 88 1010.6
20260507121552 80 80 4.0 10.0 0.00 0.00 0.00 88 1010.4
20260507121041 80 63 4.0 9.0 0.00 0.00 0.00 88 1010.4
20260507120541 80 78 3.0 9.0 0.00 0.00 0.00 88 1010.3
20260507115541 80 111 4.0 10.0 0.00 0.00 0.00 88 1010.3
20260507115043 80 94 4.0 10.0 0.00 0.00 0.00 87 1010.2
20260507114558 80 92 4.0 8.0 0.00 0.00 0.00 87 1010.1
20260507114040 81 91 4.0 8.0 0.00 0.00 0.00 87 1010.1
20260507113540 81 81 2.0 6.0 0.00 0.00 0.00 86 1010.1
20260507113051 81 82 1.0 7.0 0.00 0.00 0.00 86 1010.1
20260507112540 81 108 2.0 7.0 0.00 0.00 0.00 86 1010.0
20260507112040 81 68 3.0 7.0 0.00 0.00 0.00 85 1010.0
20260507111550 81 78 1.0 8.0 0.00 0.00 0.00 85 1010.0